status,avgMeasuredTime,avgSpeed,extID,medianMeasuredTime,TIMESTAMP,vehicleCount,_id,REPORT_ID
OK,42,45,1012,42,2014-08-01T08:00:00,6,20747067,188039
OK,42,45,1012,42,2014-08-01T08:05:00,2,20747486,188039
OK,76,25,1012,76,2014-08-01T08:10:00,2,20747889,188039
OK,76,25,1012,76,2014-08-01T08:15:00,2,20748338,188039
OK,35,55,1012,35,2014-08-01T08:20:00,1,20748787,188039
OK,35,55,1012,35,2014-08-01T08:25:00,1,20749236,188039
OK,44,43,1012,44,2014-08-01T08:30:00,3,20749685,188039
OK,44,43,1012,44,2014-08-01T08:35:00,6,20750134,188039
OK,50,38,1012,50,2014-08-01T08:40:00,5,20750583,188039
OK,43,44,1012,43,2014-08-01T08:45:00,5,20751032,188039
OK,43,44,1012,43,2014-08-01T08:50:00,7,20751481,188039
OK,41,46,1012,41,2014-08-01T08:55:00,4,20751930,188039
OK,46,41,1012,46,2014-08-01T09:00:00,1,20752379,188039
OK,49,39,1012,49,2014-08-01T09:05:00,4,20752828,188039
OK,49,39,1012,49,2014-08-01T09:10:00,5,20753277,188039
OK,54,35,1012,54,2014-08-01T09:20:00,3,20754175,188039
OK,37,52,1012,37,2014-08-01T09:25:00,5,20754624,188039
OK,40,48,1012,40,2014-08-01T09:30:00,6,20755073,188039
OK,45,42,1012,45,2014-08-01T09:35:00,3,20755522,188039
OK,58,33,1012,58,2014-08-01T09:40:00,4,20755971,188039
OK,56,34,1012,56,2014-08-01T09:45:00,3,20756420,188039
OK,49,39,1012,49,2014-08-01T09:50:00,2,20756869,188039
OK,57,33,1012,57,2014-08-01T09:55:00,5,20757318,188039
OK,61,31,1012,61,2014-08-01T10:00:00,6,20757767,188039
OK,60,32,1012,60,2014-08-01T10:05:00,4,20758216,188039
OK,52,37,1012,52,2014-08-01T10:15:00,8,20759114,188039
OK,52,37,1012,52,2014-08-01T10:20:00,8,20759563,188039
OK,58,33,1012,58,2014-08-01T10:25:00,6,20760012,188039
OK,57,33,1012,57,2014-08-01T10:30:00,3,20760461,188039
OK,58,33,1012,58,2014-08-01T10:35:00,0,20760910,188039
OK,38,50,1012,38,2014-08-01T10:40:00,3,20761359,188039
OK,44,43,1012,44,2014-08-01T10:45:00,8,20761808,188039
OK,52,37,1012,52,2014-08-01T10:50:00,8,20762257,188039
OK,61,31,1012,61,2014-08-01T10:55:00,3,20762706,188039
OK,48,40,1012,48,2014-08-01T11:00:00,2,20763155,188039
OK,50,38,1012,50,2014-08-01T11:05:00,3,20763604,188039
OK,49,39,1012,49,2014-08-01T11:10:00,5,20764053,188039
OK,47,40,1012,47,2014-08-01T11:15:00,5,20764501,188039
OK,50,38,1012,50,2014-08-01T11:20:00,2,20764950,188039
OK,48,40,1012,48,2014-08-01T11:25:00,7,20765399,188039
OK,48,40,1012,48,2014-08-01T11:30:00,9,20765848,188039
OK,61,31,1012,61,2014-08-01T11:35:00,4,20766297,188039
OK,52,37,1012,52,2014-08-01T11:40:00,3,20766746,188039
OK,54,35,1012,54,2014-08-01T11:45:00,7,20767195,188039
OK,54,35,1012,54,2014-08-01T11:50:00,7,20767644,188039
OK,52,37,1012,52,2014-08-01T11:55:00,5,20768093,188039
OK,48,40,1012,48,2014-08-01T12:00:00,5,20768542,188039
OK,47,40,1012,47,2014-08-01T12:10:00,4,20769440,188039
OK,48,40,1012,48,2014-08-01T12:15:00,5,20769889,188039
OK,67,28,1012,67,2014-08-01T12:20:00,3,20770338,188039
OK,77,25,1012,77,2014-08-01T12:25:00,3,20770787,188039
OK,77,25,1012,77,2014-08-01T12:30:00,3,20771236,188039
OK,75,25,1012,75,2014-08-01T12:35:00,3,20771685,188039
OK,75,25,1012,75,2014-08-01T12:40:00,3,20772134,188039
OK,58,33,1012,58,2014-08-01T12:45:00,2,20772583,188039
OK,45,42,1012,45,2014-08-01T12:50:00,4,20773032,188039
OK,47,40,1012,47,2014-08-01T12:55:00,6,20773481,188039
OK,51,37,1012,51,2014-08-01T13:00:00,4,20773930,188039
OK,50,38,1012,50,2014-08-01T13:05:00,3,20774379,188039
OK,50,38,1012,50,2014-08-01T13:10:00,5,20774828,188039
OK,46,41,1012,46,2014-08-01T13:15:00,5,20775277,188039
OK,69,27,1012,69,2014-08-01T13:20:00,5,20775726,188039
OK,79,24,1012,79,2014-08-01T13:25:00,3,20776175,188039
OK,83,23,1012,83,2014-08-01T13:30:00,4,20776624,188039
OK,38,50,1012,38,2014-08-01T13:35:00,7,20777073,188039
OK,50,38,1012,50,2014-08-01T13:40:00,4,20777522,188039
OK,58,33,1012,58,2014-08-01T13:45:00,5,20777971,188039
OK,53,36,1012,53,2014-08-01T13:50:00,5,20778420,188039
OK,80,24,1012,80,2014-08-01T14:00:00,6,20779318,188039
OK,81,23,1012,81,2014-08-01T14:05:00,4,20779767,188039
OK,81,23,1012,81,2014-08-01T14:10:00,2,20780216,188039
OK,70,27,1012,70,2014-08-01T14:15:00,3,20780665,188039
OK,45,42,1012,45,2014-08-01T14:20:00,2,20781114,188039
OK,48,40,1012,48,2014-08-01T14:25:00,3,20781563,188039
OK,70,27,1012,70,2014-08-01T14:30:00,4,20782012,188039
OK,70,27,1012,70,2014-08-01T14:35:00,2,20782461,188039
OK,79,24,1012,79,2014-08-01T14:40:00,2,20782910,188039
OK,79,24,1012,79,2014-08-01T14:45:00,5,20783359,188039
OK,74,26,1012,74,2014-08-01T14:50:00,4,20783808,188039
OK,58,33,1012,58,2014-08-01T14:55:00,4,20784257,188039
OK,45,42,1012,45,2014-08-01T15:00:00,5,20784706,188039
OK,45,42,1012,45,2014-08-01T15:05:00,3,20785155,188039
OK,34,56,1012,34,2014-08-01T15:10:00,1,20785604,188039
OK,41,46,1012,41,2014-08-01T15:15:00,3,20786053,188039
OK,48,40,1012,48,2014-08-01T15:20:00,8,20786502,188039
OK,43,44,1012,43,2014-08-01T15:25:00,8,20786951,188039
OK,33,58,1012,33,2014-08-01T15:30:00,5,20787400,188039
OK,41,46,1012,41,2014-08-01T15:35:00,5,20787849,188039
OK,55,35,1012,55,2014-08-01T15:40:00,2,20788298,188039
OK,50,38,1012,50,2014-08-01T15:45:00,1,20788747,188039
OK,44,43,1012,44,2014-08-01T15:50:00,1,20789196,188039
OK,49,39,1012,49,2014-08-01T15:55:00,2,20789645,188039
OK,47,40,1012,47,2014-08-01T16:00:00,2,20790094,188039
OK,45,42,1012,45,2014-08-01T16:05:00,2,20790543,188039
OK,47,40,1012,47,2014-08-01T16:10:00,3,20790992,188039
OK,45,42,1012,45,2014-08-01T16:15:00,2,20791441,188039
OK,41,46,1012,41,2014-08-01T16:20:00,1,20791890,188039
OK,41,46,1012,41,2014-08-01T16:25:00,1,20792339,188039
OK,31,62,1012,31,2014-08-01T16:30:00,1,20792788,188039
OK,38,50,1012,38,2014-08-01T16:35:00,2,20793237,188039
OK,46,41,1012,46,2014-08-01T16:40:00,1,20793686,188039
OK,44,43,1012,44,2014-08-01T16:45:00,2,20794135,188039
OK,46,41,1012,46,2014-08-01T16:50:00,3,20794584,188039
OK,73,26,1012,73,2014-08-01T16:55:00,1,20795033,188039
OK,44,43,1012,44,2014-08-01T17:00:00,3,20795482,188039
OK,53,36,1012,53,2014-08-01T17:05:00,2,20795931,188039
OK,34,56,1012,34,2014-08-01T17:10:00,1,20796380,188039
OK,44,43,1012,44,2014-08-01T17:15:00,2,20796829,188039
OK,40,48,1012,40,2014-08-01T17:20:00,4,20797278,188039
OK,60,32,1012,60,2014-08-01T17:25:00,2,20797727,188039
OK,60,32,1012,60,2014-08-01T17:30:00,2,20798176,188039
OK,49,39,1012,49,2014-08-01T17:35:00,1,20798625,188039
OK,58,33,1012,58,2014-08-01T17:40:00,2,20799074,188039
OK,42,45,1012,42,2014-08-01T17:45:00,4,20799523,188039
OK,42,45,1012,42,2014-08-01T17:50:00,4,20799972,188039
OK,50,38,1012,50,2014-08-01T17:55:00,3,20800421,188039
OK,42,45,1012,42,2014-08-01T18:00:00,2,20800870,188039
OK,42,45,1012,42,2014-08-01T18:05:00,0,20801319,188039
OK,42,45,1012,42,2014-08-01T18:10:00,0,20801768,188039
OK,42,45,1012,42,2014-08-01T18:15:00,0,20802217,188039
OK,42,45,1012,42,2014-08-01T18:20:00,0,20802666,188039
OK,46,41,1012,46,2014-08-01T18:25:00,1,20803115,188039
OK,46,41,1012,46,2014-08-01T18:30:00,3,20803564,188039
OK,50,38,1012,50,2014-08-01T18:35:00,2,20804013,188039
OK,51,37,1012,51,2014-08-01T18:40:00,1,20804462,188039
OK,57,33,1012,57,2014-08-01T18:45:00,2,20804911,188039
OK,63,30,1012,63,2014-08-01T18:50:00,1,20805360,188039
OK,63,30,1012,63,2014-08-01T18:55:00,0,20805809,188039
OK,34,56,1012,34,2014-08-01T19:00:00,1,20806258,188039
OK,54,35,1012,54,2014-08-01T19:05:00,2,20806707,188039
OK,63,30,1012,63,2014-08-01T19:10:00,2,20807156,188039
OK,36,53,1012,36,2014-08-01T19:15:00,3,20807605,188039
OK,34,56,1012,34,2014-08-01T19:20:00,2,20808054,188039
OK,34,56,1012,34,2014-08-01T19:25:00,0,20808503,188039
OK,69,27,1012,69,2014-08-01T19:30:00,1,20808952,188039
OK,69,27,1012,69,2014-08-01T19:35:00,1,20809401,188039
OK,51,37,1012,51,2014-08-01T19:40:00,1,20809850,188039
OK,51,37,1012,51,2014-08-01T19:45:00,1,20810299,188039
OK,51,37,1012,51,2014-08-01T19:50:00,0,20810748,188039
OK,33,58,1012,33,2014-08-01T19:55:00,1,20811197,188039
OK,33,58,1012,33,2014-08-01T22:00:00,0,20816926,188039
OK,33,58,1012,33,2014-08-02T00:00:00,1,20823365,188039
OK,33,58,1012,33,2014-08-02T00:05:00,1,20823814,188039
OK,33,58,1012,33,2014-08-02T00:10:00,0,20824263,188039
OK,33,58,1012,33,2014-08-02T00:15:00,0,20824712,188039
OK,33,58,1012,33,2014-08-02T00:20:00,0,20825161,188039
OK,33,58,1012,33,2014-08-02T00:25:00,0,20825610,188039
OK,33,58,1012,33,2014-08-02T00:30:00,0,20826059,188039
OK,33,58,1012,33,2014-08-02T00:35:00,0,20826508,188039
OK,33,58,1012,33,2014-08-02T00:40:00,0,20826957,188039
OK,33,58,1012,33,2014-08-02T00:45:00,0,20827406,188039
OK,33,58,1012,33,2014-08-02T00:50:00,0,20827855,188039
OK,33,58,1012,33,2014-08-02T00:55:00,0,20828304,188039
OK,33,58,1012,33,2014-08-02T01:00:00,0,20828753,188039
OK,33,58,1012,33,2014-08-02T01:05:00,0,20829202,188039
OK,58,33,1012,58,2014-08-02T01:10:00,1,20829651,188039
OK,58,33,1012,58,2014-08-02T01:15:00,0,20830100,188039
OK,58,33,1012,58,2014-08-02T01:20:00,0,20830549,188039
OK,58,33,1012,58,2014-08-02T01:25:00,0,20830998,188039
OK,58,33,1012,58,2014-08-02T01:30:00,0,20831447,188039
OK,58,33,1012,58,2014-08-02T01:35:00,0,20831896,188039
OK,58,33,1012,58,2014-08-02T01:40:00,0,20832345,188039
OK,58,33,1012,58,2014-08-02T01:45:00,0,20832794,188039
OK,58,33,1012,58,2014-08-02T01:50:00,0,20833243,188039
OK,58,33,1012,58,2014-08-02T01:55:00,0,20833692,188039
OK,58,33,1012,58,2014-08-02T02:00:00,0,20834141,188039
OK,58,33,1012,58,2014-08-02T02:05:00,0,20834590,188039
OK,58,33,1012,58,2014-08-02T02:10:00,0,20835039,188039
OK,58,33,1012,58,2014-08-02T02:15:00,0,20835488,188039
OK,58,33,1012,58,2014-08-02T02:20:00,0,20835937,188039
OK,58,33,1012,58,2014-08-02T02:25:00,0,20836386,188039
OK,58,33,1012,58,2014-08-02T02:30:00,0,20836835,188039
OK,58,33,1012,58,2014-08-02T02:35:00,0,20837284,188039
OK,58,33,1012,58,2014-08-02T02:40:00,0,20837733,188039
OK,58,33,1012,58,2014-08-02T02:45:00,0,20838182,188039
OK,58,33,1012,58,2014-08-02T02:50:00,0,20838631,188039
OK,58,33,1012,58,2014-08-02T02:55:00,0,20839080,188039
OK,58,33,1012,58,2014-08-02T03:00:00,0,20839529,188039
OK,58,33,1012,58,2014-08-02T03:05:00,0,20839978,188039
OK,58,33,1012,58,2014-08-02T03:10:00,0,20840427,188039
OK,58,33,1012,58,2014-08-02T03:15:00,0,20840876,188039
OK,58,33,1012,58,2014-08-02T03:20:00,0,20841325,188039
OK,58,33,1012,58,2014-08-02T03:25:00,0,20841774,188039
OK,58,33,1012,58,2014-08-02T03:30:00,0,20842223,188039
OK,58,33,1012,58,2014-08-02T03:35:00,0,20842672,188039
OK,58,33,1012,58,2014-08-02T03:40:00,0,20843121,188039
OK,58,33,1012,58,2014-08-02T03:45:00,0,20843570,188039
OK,58,33,1012,58,2014-08-02T03:50:00,0,20844019,188039
OK,58,33,1012,58,2014-08-02T03:55:00,0,20844468,188039
OK,40,48,1012,40,2014-08-02T06:00:00,0,20851922,188039
OK,40,48,1012,40,2014-08-02T06:05:00,0,20852371,188039
OK,32,60,1012,32,2014-08-02T06:10:00,1,20852820,188039
OK,40,48,1012,40,2014-08-02T06:15:00,2,20853269,188039
OK,48,40,1012,48,2014-08-02T06:20:00,1,20853718,188039
OK,32,60,1012,32,2014-08-02T06:25:00,0,20854167,188039
OK,76,25,1012,76,2014-08-02T06:30:00,2,20854616,188039
OK,76,25,1012,76,2014-08-02T06:35:00,2,20855065,188039
OK,35,55,1012,35,2014-08-02T06:40:00,1,20855514,188039
OK,52,37,1012,52,2014-08-02T06:45:00,2,20855963,188039
OK,70,27,1012,70,2014-08-02T06:50:00,1,20856412,188039
OK,70,27,1012,70,2014-08-02T06:55:00,0,20856861,188039
OK,70,27,1012,70,2014-08-02T07:00:00,0,20857310,188039
OK,51,37,1012,51,2014-08-02T07:05:00,1,20857759,188039
OK,51,37,1012,51,2014-08-02T07:10:00,3,20858208,188039
OK,53,36,1012,53,2014-08-02T07:15:00,3,20858657,188039
OK,33,58,1012,33,2014-08-02T07:20:00,4,20859106,188039
OK,50,38,1012,50,2014-08-02T07:25:00,7,20859555,188039
OK,52,37,1012,52,2014-08-02T07:30:00,4,20860004,188039
OK,60,32,1012,60,2014-08-02T07:35:00,2,20860453,188039
OK,57,33,1012,57,2014-08-02T07:40:00,3,20860902,188039
OK,59,32,1012,59,2014-08-02T07:45:00,2,20861351,188039
OK,66,29,1012,66,2014-08-02T07:50:00,4,20861800,188039
OK,60,32,1012,60,2014-08-02T07:55:00,4,20862249,188039
OK,38,50,1012,38,2014-08-02T08:00:00,4,20862698,188039
OK,36,53,1012,36,2014-08-02T08:05:00,3,20863147,188039
OK,58,33,1012,58,2014-08-02T08:10:00,3,20863596,188039
OK,62,31,1012,62,2014-08-02T08:15:00,3,20864045,188039
OK,62,31,1012,62,2014-08-02T08:20:00,5,20864494,188039
OK,48,40,1012,48,2014-08-02T08:25:00,4,20864943,188039
OK,46,41,1012,46,2014-08-02T08:30:00,2,20865392,188039
OK,40,48,1012,40,2014-08-02T08:35:00,2,20865841,188039
OK,48,40,1012,48,2014-08-02T08:40:00,4,20866290,188039
OK,49,39,1012,49,2014-08-02T08:45:00,3,20866739,188039
OK,43,44,1012,43,2014-08-02T08:50:00,3,20867188,188039
OK,47,40,1012,47,2014-08-02T08:55:00,5,20867637,188039
OK,53,36,1012,53,2014-08-02T09:00:00,2,20868086,188039
OK,80,24,1012,80,2014-08-02T09:05:00,4,20868535,188039
OK,85,22,1012,85,2014-08-02T09:10:00,5,20868984,188039
OK,79,24,1012,79,2014-08-02T09:15:00,2,20869433,188039
OK,62,31,1012,62,2014-08-02T09:20:00,1,20869882,188039
OK,49,39,1012,49,2014-08-02T09:25:00,2,20870331,188039
OK,36,53,1012,36,2014-08-02T09:30:00,6,20870780,188039
OK,35,55,1012,35,2014-08-02T09:35:00,5,20871229,188039
OK,75,25,1012,75,2014-08-02T09:40:00,5,20871678,188039
OK,75,25,1012,75,2014-08-02T09:45:00,9,20872127,188039
OK,67,28,1012,67,2014-08-02T09:50:00,12,20872576,188039
OK,62,31,1012,62,2014-08-02T09:55:00,10,20873025,188039
OK,48,40,1012,48,2014-08-02T10:00:00,8,20873474,188039
OK,36,53,1012,36,2014-08-02T10:05:00,3,20873923,188039
OK,61,31,1012,61,2014-08-02T10:10:00,3,20874372,188039
OK,73,26,1012,73,2014-08-02T10:15:00,6,20874821,188039
OK,53,36,1012,53,2014-08-02T10:20:00,6,20875270,188039
OK,48,40,1012,48,2014-08-02T10:25:00,4,20875719,188039
OK,58,33,1012,58,2014-08-02T10:30:00,2,20876168,188039
OK,76,25,1012,76,2014-08-02T10:35:00,3,20876617,188039
OK,71,27,1012,71,2014-08-02T10:40:00,4,20877066,188039
OK,77,25,1012,77,2014-08-02T10:45:00,4,20877515,188039
OK,68,28,1012,68,2014-08-02T10:50:00,4,20877964,188039
OK,62,31,1012,62,2014-08-02T10:55:00,5,20878413,188039
OK,60,32,1012,60,2014-08-02T11:00:00,5,20878862,188039
OK,66,29,1012,66,2014-08-02T11:05:00,2,20879311,188039
OK,40,48,1012,40,2014-08-02T11:10:00,1,20879760,188039
OK,40,48,1012,40,2014-08-02T11:15:00,1,20880209,188039
OK,63,30,1012,63,2014-08-02T11:20:00,5,20880658,188039
OK,88,21,1012,88,2014-08-02T11:25:00,7,20881107,188039
OK,91,21,1012,91,2014-08-02T11:30:00,4,20881556,188039
OK,77,25,1012,77,2014-08-02T11:35:00,2,20882005,188039
OK,75,25,1012,75,2014-08-02T11:40:00,3,20882454,188039
OK,40,48,1012,40,2014-08-02T11:45:00,2,20882903,188039
OK,46,41,1012,46,2014-08-02T11:50:00,2,20883352,188039
OK,41,46,1012,41,2014-08-02T11:55:00,1,20883801,188039
OK,43,44,1012,43,2014-08-02T12:00:00,2,20884250,188039
OK,49,39,1012,49,2014-08-02T12:05:00,3,20884699,188039
OK,63,30,1012,63,2014-08-02T12:10:00,2,20885148,188039
OK,68,28,1012,68,2014-08-02T12:15:00,2,20885597,188039
OK,62,31,1012,62,2014-08-02T12:20:00,2,20886046,188039
OK,36,53,1012,36,2014-08-02T12:25:00,2,20886495,188039
OK,35,55,1012,35,2014-08-02T12:30:00,2,20886944,188039
OK,38,50,1012,38,2014-08-02T12:35:00,2,20887393,188039
OK,49,39,1012,49,2014-08-02T12:40:00,4,20887842,188039
OK,37,52,1012,37,2014-08-02T12:45:00,5,20888291,188039
OK,34,56,1012,34,2014-08-02T12:50:00,3,20888740,188039
OK,46,41,1012,46,2014-08-02T12:55:00,3,20889189,188039
OK,56,34,1012,56,2014-08-02T13:00:00,3,20889638,188039
OK,64,30,1012,64,2014-08-02T13:05:00,5,20890087,188039
OK,54,35,1012,54,2014-08-02T13:10:00,6,20890536,188039
OK,52,37,1012,52,2014-08-02T13:15:00,4,20890985,188039
OK,45,42,1012,45,2014-08-02T13:20:00,4,20891434,188039
OK,38,50,1012,38,2014-08-02T13:25:00,2,20891883,188039
OK,36,53,1012,36,2014-08-02T13:30:00,0,20892332,188039
OK,38,50,1012,38,2014-08-02T13:35:00,1,20892781,188039
OK,45,42,1012,45,2014-08-02T13:40:00,6,20893230,188039
OK,46,41,1012,46,2014-08-02T13:45:00,5,20893679,188039
OK,35,55,1012,35,2014-08-02T13:50:00,5,20894128,188039
OK,34,56,1012,34,2014-08-02T13:55:00,6,20894577,188039
OK,32,60,1012,32,2014-08-02T14:00:00,2,20895026,188039
OK,58,33,1012,58,2014-08-02T14:05:00,3,20895475,188039
OK,65,29,1012,65,2014-08-02T14:10:00,2,20895924,188039
OK,48,40,1012,48,2014-08-02T14:15:00,2,20896373,188039
OK,41,46,1012,41,2014-08-02T14:20:00,4,20896822,188039
OK,34,56,1012,34,2014-08-02T14:25:00,2,20897271,188039
OK,36,53,1012,36,2014-08-02T14:30:00,1,20897720,188039
OK,36,53,1012,36,2014-08-02T14:35:00,0,20898169,188039
OK,36,53,1012,36,2014-08-02T14:40:00,0,20898618,188039
OK,36,53,1012,36,2014-08-02T14:45:00,0,20899067,188039
OK,35,55,1012,35,2014-08-02T14:50:00,1,20899516,188039
OK,32,60,1012,32,2014-08-02T14:55:00,2,20899965,188039
OK,66,29,1012,66,2014-08-02T15:00:00,1,20900414,188039
OK,66,29,1012,66,2014-08-02T15:05:00,1,20900863,188039
OK,33,58,1012,33,2014-08-02T15:10:00,1,20901312,188039
OK,67,28,1012,67,2014-08-02T15:15:00,1,20901761,188039
OK,51,37,1012,51,2014-08-02T15:20:00,2,20902210,188039
OK,36,53,1012,36,2014-08-02T15:25:00,1,20902659,188039
OK,17,113,1012,17,2014-08-02T15:30:00,1,20903108,188039
OK,45,42,1012,45,2014-08-02T15:35:00,1,20903557,188039
OK,45,42,1012,45,2014-08-02T15:40:00,0,20904006,188039
OK,25,77,1012,25,2014-08-02T15:45:00,3,20904455,188039
OK,25,77,1012,25,2014-08-02T15:50:00,3,20904904,188039
OK,26,74,1012,26,2014-08-02T15:55:00,0,20905353,188039
OK,70,27,1012,70,2014-08-02T16:00:00,1,20905802,188039
OK,68,28,1012,68,2014-08-02T16:05:00,2,20906251,188039
OK,67,28,1012,67,2014-08-02T16:10:00,1,20906700,188039
OK,44,43,1012,44,2014-08-02T16:15:00,1,20907149,188039
OK,44,43,1012,44,2014-08-02T16:20:00,1,20907598,188039
OK,44,43,1012,44,2014-08-02T16:25:00,0,20908047,188039
OK,62,31,1012,62,2014-08-02T16:30:00,2,20908496,188039
OK,62,31,1012,62,2014-08-02T16:35:00,2,20908945,188039
OK,68,28,1012,68,2014-08-02T16:40:00,0,20909394,188039
OK,68,28,1012,68,2014-08-02T16:45:00,0,20909843,188039
OK,61,31,1012,61,2014-08-02T16:50:00,2,20910292,188039
OK,57,33,1012,57,2014-08-02T16:55:00,3,20910741,188039
OK,54,35,1012,54,2014-08-02T17:00:00,2,20911190,188039
OK,51,37,1012,51,2014-08-02T17:05:00,1,20911639,188039
OK,57,33,1012,57,2014-08-02T17:10:00,2,20912088,188039
OK,60,32,1012,60,2014-08-02T17:15:00,3,20912537,188039
OK,59,32,1012,59,2014-08-02T17:20:00,3,20912986,188039
OK,57,33,1012,57,2014-08-02T17:25:00,2,20913435,188039
OK,71,27,1012,71,2014-08-02T17:30:00,2,20913884,188039
OK,62,31,1012,62,2014-08-02T17:35:00,3,20914333,188039
OK,28,68,1012,28,2014-08-02T17:40:00,1,20914782,188039
OK,67,28,1012,67,2014-08-02T17:45:00,1,20915231,188039
OK,67,28,1012,67,2014-08-02T17:50:00,1,20915680,188039
OK,67,28,1012,67,2014-08-02T17:55:00,0,20916129,188039
OK,67,28,1012,67,2014-08-02T18:00:00,0,20916578,188039
OK,77,25,1012,77,2014-08-02T18:05:00,1,20917027,188039
OK,77,25,1012,77,2014-08-02T18:10:00,1,20917476,188039
OK,77,25,1012,77,2014-08-02T18:15:00,0,20917925,188039
OK,77,25,1012,77,2014-08-02T18:20:00,0,20918374,188039
OK,77,25,1012,77,2014-08-02T18:25:00,0,20918823,188039
OK,48,40,1012,48,2014-08-02T18:30:00,2,20919272,188039
OK,65,29,1012,65,2014-08-02T18:35:00,3,20919721,188039
OK,57,33,1012,57,2014-08-02T18:40:00,2,20920170,188039
OK,47,40,1012,47,2014-08-02T18:45:00,1,20920619,188039
OK,56,34,1012,56,2014-08-02T18:50:00,3,20921068,188039
OK,63,30,1012,63,2014-08-02T18:55:00,4,20921517,188039
OK,39,49,1012,39,2014-08-02T19:00:00,1,20921966,188039
OK,50,38,1012,50,2014-08-02T19:05:00,2,20922415,188039
OK,50,38,1012,50,2014-08-02T19:10:00,3,20922864,188039
OK,31,62,1012,31,2014-08-02T19:15:00,1,20923313,188039
OK,68,28,1012,68,2014-08-02T19:20:00,1,20923762,188039
OK,65,29,1012,65,2014-08-02T19:25:00,2,20924211,188039
OK,62,31,1012,62,2014-08-02T19:30:00,1,20924660,188039
OK,62,31,1012,62,2014-08-02T19:35:00,0,20925109,188039
OK,62,31,1012,62,2014-08-02T19:40:00,0,20925558,188039
OK,38,50,1012,38,2014-08-02T19:45:00,1,20926007,188039
OK,38,50,1012,38,2014-08-02T19:50:00,1,20926456,188039
OK,33,58,1012,33,2014-08-02T19:55:00,1,20926905,188039
OK,33,58,1012,33,2014-08-02T20:00:00,1,20927354,188039
OK,29,66,1012,29,2014-08-02T20:05:00,2,20927803,188039
OK,29,66,1012,29,2014-08-02T20:10:00,2,20928252,188039
OK,44,43,1012,44,2014-08-02T20:15:00,1,20928701,188039
OK,44,43,1012,44,2014-08-02T20:20:00,1,20929150,188039
OK,53,36,1012,53,2014-08-02T20:25:00,1,20929599,188039
OK,28,68,1012,28,2014-08-02T20:30:00,3,20930048,188039
OK,27,71,1012,27,2014-08-02T20:35:00,2,20930497,188039
OK,45,42,1012,45,2014-08-02T20:40:00,1,20930946,188039
OK,45,42,1012,45,2014-08-02T20:45:00,1,20931395,188039
OK,45,42,1012,45,2014-08-02T20:50:00,0,20931844,188039
OK,45,42,1012,45,2014-08-02T20:55:00,0,20932293,188039
OK,45,42,1012,45,2014-08-02T21:00:00,0,20932742,188039
OK,45,42,1012,45,2014-08-02T21:05:00,0,20933191,188039
OK,45,42,1012,45,2014-08-02T21:10:00,0,20933640,188039
OK,45,42,1012,45,2014-08-02T21:15:00,0,20934089,188039
OK,45,42,1012,45,2014-08-02T21:20:00,0,20934538,188039
OK,36,53,1012,36,2014-08-02T21:25:00,1,20934987,188039
OK,44,43,1012,44,2014-08-02T21:30:00,2,20935436,188039
OK,53,36,1012,53,2014-08-02T21:35:00,1,20935885,188039
OK,53,36,1012,53,2014-08-02T21:40:00,0,20936334,188039
OK,53,36,1012,53,2014-08-02T21:45:00,0,20936783,188039
OK,53,36,1012,53,2014-08-02T21:50:00,0,20937232,188039
OK,53,36,1012,53,2014-08-02T21:55:00,0,20937681,188039
OK,53,36,1012,53,2014-08-02T22:00:00,0,20938130,188039
OK,72,26,1012,72,2014-08-02T22:05:00,1,20938579,188039
OK,61,31,1012,61,2014-08-02T22:10:00,2,20939028,188039
OK,61,31,1012,61,2014-08-02T22:15:00,0,20939477,188039
OK,60,32,1012,60,2014-08-02T22:20:00,3,20939926,188039
OK,60,32,1012,60,2014-08-02T22:25:00,3,20940375,188039
OK,60,32,1012,60,2014-08-02T22:30:00,0,20940824,188039
OK,60,32,1012,60,2014-08-02T22:35:00,0,20941273,188039
OK,60,32,1012,60,2014-08-02T22:40:00,0,20941722,188039
OK,65,29,1012,65,2014-08-02T22:45:00,1,20942171,188039
OK,62,31,1012,62,2014-08-02T22:50:00,3,20942620,188039
OK,60,32,1012,60,2014-08-02T22:55:00,2,20943069,188039
OK,60,32,1012,60,2014-08-02T23:00:00,0,20943518,188039
OK,60,32,1012,60,2014-08-02T23:10:00,0,20943967,188039
OK,60,32,1012,60,2014-08-02T23:15:00,0,20944416,188039
OK,60,32,1012,60,2014-08-02T23:20:00,0,20944865,188039
OK,60,32,1012,60,2014-08-02T23:25:00,0,20945314,188039
OK,64,30,1012,64,2014-08-02T23:30:00,1,20945763,188039
OK,64,30,1012,64,2014-08-02T23:35:00,1,20946212,188039
OK,64,30,1012,64,2014-08-02T23:40:00,0,20946661,188039
OK,64,30,1012,64,2014-08-02T23:45:00,0,20947110,188039
OK,64,30,1012,64,2014-08-02T23:50:00,0,20947559,188039
OK,64,30,1012,64,2014-08-02T23:55:00,0,20948008,188039
OK,64,30,1012,64,2014-08-03T00:00:00,0,20948457,188039
OK,64,30,1012,64,2014-08-03T00:05:00,0,20948906,188039
OK,64,30,1012,64,2014-08-03T00:10:00,0,20949354,188039
OK,64,30,1012,64,2014-08-03T00:15:00,0,20949803,188039
OK,64,30,1012,64,2014-08-03T00:20:00,0,20950252,188039
OK,64,30,1012,64,2014-08-03T00:25:00,0,20950701,188039
OK,64,30,1012,64,2014-08-03T00:30:00,0,20951150,188039
OK,64,30,1012,64,2014-08-03T00:35:00,0,20951599,188039
OK,64,30,1012,64,2014-08-03T00:40:00,0,20952048,188039
OK,64,30,1012,64,2014-08-03T00:45:00,0,20952497,188039
OK,64,30,1012,64,2014-08-03T00:50:00,0,20952946,188039
OK,64,30,1012,64,2014-08-03T00:55:00,0,20953395,188039
OK,64,30,1012,64,2014-08-03T01:00:00,0,20953844,188039
OK,64,30,1012,64,2014-08-03T01:05:00,0,20954293,188039
OK,64,30,1012,64,2014-08-03T01:10:00,0,20954742,188039
OK,64,30,1012,64,2014-08-03T01:15:00,0,20955191,188039
OK,64,30,1012,64,2014-08-03T01:20:00,0,20955640,188039
OK,64,30,1012,64,2014-08-03T01:25:00,0,20956089,188039
OK,64,30,1012,64,2014-08-03T01:30:00,0,20956538,188039
OK,64,30,1012,64,2014-08-03T01:35:00,0,20956987,188039
OK,64,30,1012,64,2014-08-03T01:40:00,0,20957436,188039
OK,64,30,1012,64,2014-08-03T01:45:00,0,20957885,188039